Time,TemperatureF,DewpointF,PressureIn,WindDirection,WindDirectionDegrees,WindSpeedMPH,WindSpeedGustMPH,Humidity,HourlyPrecipIn,Conditions,Clouds,dailyrainin,SoftwareType,DateUTC
2013-01-26 00:00:00,26.8,22.8,30.29,ENE,69,2.0,4.0,85,0.00,,,0.00,meteohub,2013-01-26 06:00:00,
2013-01-26 00:05:00,26.8,22.6,30.29,ENE,76,2.0,4.0,84,0.00,,,0.00,meteohub,2013-01-26 06:05:00,
2013-01-26 00:10:00,26.6,22.5,30.29,ENE,61,3.0,4.0,84,0.00,,,0.00,meteohub,2013-01-26 06:10:00,
2013-01-26 00:15:00,26.6,22.5,30.28,ENE,61,6.0,6.0,84,0.00,,,0.00,meteohub,2013-01-26 06:15:00,
2013-01-26 00:20:00,26.2,22.1,30.28,East,84,3.0,6.0,84,0.00,,,0.00,meteohub,2013-01-26 06:20:00,
2013-01-26 00:26:00,26.2,22.1,30.29,East,80,0.0,6.0,84,0.00,,,0.00,meteohub,2013-01-26 06:26:00,
2013-01-26 00:31:00,26.4,22.3,30.29,ENE,64,0.0,6.0,84,0.00,,,0.00,meteohub,2013-01-26 06:31:00,
2013-01-26 00:36:00,26.4,22.3,30.29,NE,56,0.0,5.0,84,0.00,,,0.00,meteohub,2013-01-26 06:36:00,
2013-01-26 00:41:00,26.1,21.9,30.29,ENE,59,2.0,3.0,84,0.00,,,0.00,meteohub,2013-01-26 06:41:00,
2013-01-26 00:46:00,25.9,21.7,30.29,NE,53,6.0,6.0,84,0.00,,,0.00,meteohub,2013-01-26 06:46:00,
2013-01-26 00:51:00,25.9,21.9,30.29,ENE,77,3.0,6.0,85,0.00,,,0.00,meteohub,2013-01-26 06:51:00,
2013-01-26 00:56:00,25.9,21.7,30.29,ENE,57,4.0,6.0,84,0.00,,,0.00,meteohub,2013-01-26 06:56:00,
2013-01-26 01:01:00,25.9,21.7,30.29,ENE,74,3.0,6.0,84,0.00,,,0.00,meteohub,2013-01-26 07:01:00,
2013-01-26 01:06:00,25.7,21.6,30.29,East,84,3.0,6.0,84,0.00,,,0.00,meteohub,2013-01-26 07:06:00,
2013-01-26 01:11:00,25.7,21.6,30.29,NE,55,5.0,6.0,84,0.00,,,0.00,meteohub,2013-01-26 07:11:00,
2013-01-26 01:16:00,25.5,21.4,30.29,ENE,67,4.0,6.0,84,0.00,,,0.00,meteohub,2013-01-26 07:16:00,
2013-01-26 01:21:00,25.2,21.0,30.29,ENE,61,4.0,6.0,84,0.00,,,0.00,meteohub,2013-01-26 07:21:00,
2013-01-26 01:26:00,24.4,19.9,30.29,ENE,57,4.0,6.0,83,0.00,,,0.00,meteohub,2013-01-26 07:26:00,
2013-01-26 01:31:00,23.7,19.6,30.29,NE,51,5.0,5.0,84,0.00,,,0.00,meteohub,2013-01-26 07:31:00,
2013-01-26 01:36:00,23.4,19.6,30.29,NE,51,4.0,5.0,85,0.00,,,0.00,meteohub,2013-01-26 07:36:00,
2013-01-26 01:42:00,23.2,19.6,30.29,ENE,57,4.0,6.0,86,0.00,,,0.00,meteohub,2013-01-26 07:42:00,
2013-01-26 01:47:00,23.2,19.9,30.29,ENE,73,1.0,6.0,87,0.00,,,0.00,meteohub,2013-01-26 07:47:00,
2013-01-26 01:52:00,23.4,20.1,30.29,ENE,75,4.0,6.0,87,0.00,,,0.00,meteohub,2013-01-26 07:52:00,
2013-01-26 01:57:00,23.5,20.3,30.29,ENE,76,3.0,5.0,87,0.00,,,0.00,meteohub,2013-01-26 07:57:00,
2013-01-26 02:02:00,23.4,20.1,30.29,East,85,3.0,6.0,87,0.00,,,0.00,meteohub,2013-01-26 08:02:00,
2013-01-26 02:07:00,23.4,20.1,30.29,East,95,5.0,6.0,87,0.00,,,0.00,meteohub,2013-01-26 08:07:00,
2013-01-26 02:12:00,23.2,19.9,30.29,ESE,105,4.0,7.0,87,0.00,,,0.00,meteohub,2013-01-26 08:12:00,
2013-01-26 02:17:00,23.2,19.9,30.29,ESE,113,6.0,7.0,87,0.00,,,0.00,meteohub,2013-01-26 08:17:00,
2013-01-26 02:22:00,23.2,19.9,30.29,ESE,112,6.0,8.0,87,0.00,,,0.00,meteohub,2013-01-26 08:22:00,
2013-01-26 02:27:00,22.8,19.6,30.29,ESE,112,6.0,8.0,87,0.00,,,0.00,meteohub,2013-01-26 08:27:00,
2013-01-26 02:32:00,22.8,19.6,30.29,ESE,112,7.0,8.0,87,0.00,,,0.00,meteohub,2013-01-26 08:32:00,
2013-01-26 02:37:00,22.6,19.4,30.29,ESE,113,7.0,9.0,87,0.00,,,0.00,meteohub,2013-01-26 08:37:00,
2013-01-26 02:42:00,22.6,19.4,30.29,ESE,108,7.0,9.0,87,0.00,,,0.00,meteohub,2013-01-26 08:42:00,
2013-01-26 02:47:00,22.5,19.2,30.29,ESE,111,7.0,9.0,87,0.00,,,0.00,meteohub,2013-01-26 08:47:00,
2013-01-26 02:52:00,22.3,19.0,30.29,ESE,119,6.0,7.0,87,0.00,,,0.00,meteohub,2013-01-26 08:52:00,
2013-01-26 02:57:00,22.1,18.9,30.29,ESE,104,4.0,7.0,87,0.00,,,0.00,meteohub,2013-01-26 08:57:00,
2013-01-26 03:02:00,21.9,18.7,30.29,East,98,5.0,7.0,87,0.00,,,0.00,meteohub,2013-01-26 09:02:00,
2013-01-26 03:07:00,21.9,18.7,30.29,East,93,5.0,7.0,87,0.00,,,0.00,meteohub,2013-01-26 09:07:00,
2013-01-26 03:12:00,21.9,18.9,30.29,ENE,77,3.0,6.0,88,0.00,,,0.00,meteohub,2013-01-26 09:12:00,
2013-01-26 03:17:00,22.1,18.9,30.29,East,99,5.0,7.0,87,0.00,,,0.00,meteohub,2013-01-26 09:17:00,
2013-01-26 03:22:00,21.9,18.7,30.28,ENE,69,3.0,7.0,87,0.00,,,0.00,meteohub,2013-01-26 09:22:00,
2013-01-26 03:27:00,21.7,18.5,30.28,East,101,5.0,7.0,87,0.00,,,0.00,meteohub,2013-01-26 09:27:00,
2013-01-26 03:32:00,21.4,18.1,30.28,ESE,111,5.0,7.0,87,0.00,,,0.00,meteohub,2013-01-26 09:32:00,
2013-01-26 03:37:00,21.4,18.1,30.28,ESE,112,5.0,7.0,87,0.00,,,0.00,meteohub,2013-01-26 09:37:00,
2013-01-26 03:42:00,21.0,17.8,30.28,ESE,115,2.0,7.0,87,0.00,,,0.00,meteohub,2013-01-26 09:42:00,
2013-01-26 03:47:00,20.7,17.4,30.28,ESE,115,4.0,7.0,87,0.00,,,0.00,meteohub,2013-01-26 09:47:00,
2013-01-26 03:52:00,20.5,17.2,30.28,ESE,115,4.0,6.0,87,0.00,,,0.00,meteohub,2013-01-26 09:52:00,
2013-01-26 03:57:00,20.3,17.2,30.27,ESE,115,4.0,5.0,88,0.00,,,0.00,meteohub,2013-01-26 09:57:00,
2013-01-26 04:02:00,20.3,17.2,30.27,ESE,113,5.0,5.0,88,0.00,,,0.00,meteohub,2013-01-26 10:02:00,
2013-01-26 04:07:00,20.3,17.2,30.27,ESE,111,5.0,6.0,88,0.00,,,0.00,meteohub,2013-01-26 10:07:00,
2013-01-26 04:12:00,19.9,16.9,30.27,ESE,119,5.0,6.0,88,0.00,,,0.00,meteohub,2013-01-26 10:12:00,
2013-01-26 04:17:00,19.8,16.7,30.27,ESE,121,5.0,6.0,88,0.00,,,0.00,meteohub,2013-01-26 10:17:00,
2013-01-26 04:22:00,19.6,16.9,30.27,SE,124,6.0,7.0,89,0.00,,,0.00,meteohub,2013-01-26 10:22:00,
2013-01-26 04:27:00,19.4,16.7,30.27,ESE,122,6.0,7.0,89,0.00,,,0.00,meteohub,2013-01-26 10:27:00,
2013-01-26 04:32:00,19.2,16.5,30.26,ESE,114,5.0,7.0,89,0.00,,,0.00,meteohub,2013-01-26 10:32:00,
2013-01-26 04:37:00,19.6,17.1,30.26,ESE,114,7.0,7.0,90,0.00,,,0.00,meteohub,2013-01-26 10:37:00,
2013-01-26 04:42:00,19.8,17.2,30.26,ESE,118,9.0,9.0,90,0.00,,,0.00,meteohub,2013-01-26 10:42:00,
2013-01-26 04:47:00,19.8,17.2,30.26,ESE,113,8.0,9.0,90,0.00,,,0.00,meteohub,2013-01-26 10:47:00,
2013-01-26 04:52:00,19.8,17.2,30.25,ESE,114,7.0,11.0,90,0.00,,,0.00,meteohub,2013-01-26 10:52:00,
2013-01-26 04:57:00,19.8,17.2,30.26,SE,132,6.0,11.0,90,0.00,,,0.00,meteohub,2013-01-26 10:57:00,
2013-01-26 05:02:00,19.8,17.2,30.26,SE,126,5.0,11.0,90,0.00,,,0.00,meteohub,2013-01-26 11:02:00,
2013-01-26 05:07:00,19.6,16.9,30.26,ESE,121,7.0,9.0,89,0.00,,,0.00,meteohub,2013-01-26 11:07:00,
2013-01-26 05:12:00,19.6,16.9,30.26,SE,128,6.0,9.0,89,0.00,,,0.00,meteohub,2013-01-26 11:12:00,
2013-01-26 05:17:00,19.2,16.5,30.26,ESE,119,6.0,8.0,89,0.00,,,0.00,meteohub,2013-01-26 11:17:00,
2013-01-26 05:22:00,19.6,17.1,30.26,ESE,123,8.0,8.0,90,0.00,,,0.00,meteohub,2013-01-26 11:22:00,
2013-01-26 05:27:00,19.8,17.2,30.26,ESE,119,8.0,11.0,90,0.00,,,0.00,meteohub,2013-01-26 11:27:00,
2013-01-26 05:32:00,19.9,17.4,30.27,ESE,109,8.0,12.0,90,0.00,,,0.00,meteohub,2013-01-26 11:32:00,
2013-01-26 05:37:00,19.9,17.4,30.27,SE,128,8.0,12.0,90,0.00,,,0.00,meteohub,2013-01-26 11:37:00,
2013-01-26 05:42:00,20.1,17.6,30.27,ESE,113,7.0,11.0,90,0.00,,,0.00,meteohub,2013-01-26 11:42:00,
2013-01-26 05:47:00,20.1,17.6,30.26,ESE,114,8.0,9.0,90,0.00,,,0.00,meteohub,2013-01-26 11:47:00,
2013-01-26 05:52:00,20.1,17.6,30.26,ESE,118,7.0,9.0,90,0.00,,,0.00,meteohub,2013-01-26 11:52:00,
2013-01-26 05:57:00,20.1,17.6,30.26,ESE,115,8.0,9.0,90,0.00,,,0.00,meteohub,2013-01-26 11:57:00,
2013-01-26 06:02:00,20.1,17.6,30.26,ESE,114,9.0,11.0,90,0.00,,,0.00,meteohub,2013-01-26 12:02:00,
2013-01-26 06:07:00,20.1,17.6,30.26,East,101,8.0,13.0,90,0.00,,,0.00,meteohub,2013-01-26 12:07:00,
2013-01-26 06:12:00,20.1,17.6,30.26,ESE,115,9.0,13.0,90,0.00,,,0.00,meteohub,2013-01-26 12:12:00,
2013-01-26 06:17:00,19.9,17.4,30.26,ESE,103,11.0,13.0,90,0.00,,,0.00,meteohub,2013-01-26 12:17:00,
2013-01-26 06:22:00,19.9,17.4,30.26,ESE,117,7.0,13.0,90,0.00,,,0.00,meteohub,2013-01-26 12:22:00,
2013-01-26 06:27:00,19.9,17.4,30.26,ESE,113,9.0,13.0,90,0.00,,,0.00,meteohub,2013-01-26 12:27:00,
2013-01-26 06:32:00,19.8,17.2,30.26,ESE,118,9.0,13.0,90,0.00,,,0.00,meteohub,2013-01-26 12:32:00,
2013-01-26 06:37:00,19.8,17.2,30.26,ESE,111,11.0,13.0,90,0.00,,,0.00,meteohub,2013-01-26 12:37:00,
2013-01-26 06:42:00,19.6,17.1,30.26,ESE,112,11.0,14.0,90,0.00,,,0.00,meteohub,2013-01-26 12:42:00,
2013-01-26 06:47:00,19.4,16.9,30.26,ESE,119,11.0,14.0,90,0.00,,,0.00,meteohub,2013-01-26 12:47:00,
2013-01-26 06:52:00,19.2,16.7,30.26,ESE,113,7.0,13.0,90,0.00,,,0.00,meteohub,2013-01-26 12:52:00,
2013-01-26 06:57:00,19.0,16.5,30.26,ESE,116,11.0,13.0,90,0.00,,,0.00,meteohub,2013-01-26 12:57:00,
2013-01-26 07:02:00,18.9,16.3,30.26,ESE,117,12.0,14.0,90,0.00,,,0.00,meteohub,2013-01-26 13:02:00,
2013-01-26 07:07:00,18.9,16.3,30.26,ESE,117,7.0,14.0,90,0.00,,,0.00,meteohub,2013-01-26 13:07:00,
2013-01-26 07:12:00,18.9,16.3,30.26,ESE,113,8.0,14.0,90,0.00,,,0.00,meteohub,2013-01-26 13:12:00,
2013-01-26 07:17:00,18.9,16.3,30.27,ESE,122,9.0,13.0,90,0.00,,,0.00,meteohub,2013-01-26 13:17:00,
2013-01-26 07:22:00,18.7,16.2,30.27,ESE,117,8.0,13.0,90,0.00,,,0.00,meteohub,2013-01-26 13:22:00,
2013-01-26 07:27:00,18.5,16.0,30.26,SE,126,9.0,13.0,90,0.00,,,0.00,meteohub,2013-01-26 13:27:00,
2013-01-26 07:32:00,18.3,15.8,30.26,SE,134,12.0,12.0,90,0.00,,,0.00,meteohub,2013-01-26 13:32:00,
2013-01-26 07:37:00,18.3,15.8,30.26,SE,127,13.0,14.0,90,0.00,,,0.00,meteohub,2013-01-26 13:37:00,
2013-01-26 07:42:00,18.1,15.6,30.27,ESE,112,11.0,14.0,90,0.00,,,0.00,meteohub,2013-01-26 13:42:00,
2013-01-26 07:47:00,18.1,15.6,30.27,SE,130,9.0,14.0,90,0.00,,,0.00,meteohub,2013-01-26 13:47:00,
2013-01-26 07:52:00,18.0,15.4,30.27,ESE,112,12.0,14.0,90,0.00,,,0.00,meteohub,2013-01-26 13:52:00,
2013-01-26 07:57:00,18.0,15.4,30.27,ESE,121,11.0,15.0,90,0.00,,,0.00,meteohub,2013-01-26 13:57:00,
2013-01-26 08:02:00,18.0,15.3,30.27,ESE,123,12.0,15.0,89,0.00,,,0.00,meteohub,2013-01-26 14:02:00,
2013-01-26 08:07:00,18.1,15.4,30.27,SE,124,13.0,15.0,89,0.00,,,0.00,meteohub,2013-01-26 14:07:00,
2013-01-26 08:12:00,18.3,15.6,30.27,SE,126,8.0,14.0,89,0.00,,,0.00,meteohub,2013-01-26 14:12:00,
2013-01-26 08:17:00,18.7,16.0,30.28,SE,130,12.0,14.0,89,0.00,,,0.00,meteohub,2013-01-26 14:17:00,
2013-01-26 08:22:00,18.9,16.2,30.27,SE,135,10.0,14.0,89,0.00,,,0.00,meteohub,2013-01-26 14:22:00,
2013-01-26 08:27:00,19.4,16.7,30.27,ESE,113,14.0,15.0,89,0.00,,,0.00,meteohub,2013-01-26 14:27:00,
2013-01-26 08:32:00,19.8,17.1,30.27,SE,129,13.0,16.0,89,0.00,,,0.00,meteohub,2013-01-26 14:32:00,
2013-01-26 08:37:00,19.9,16.9,30.27,SE,134,14.0,16.0,88,0.00,,,0.00,meteohub,2013-01-26 14:37:00,
2013-01-26 08:42:00,20.1,17.1,30.27,SE,125,11.0,17.0,88,0.00,,,0.00,meteohub,2013-01-26 14:42:00,
2013-01-26 08:47:00,20.5,17.4,30.27,ESE,121,13.0,18.0,88,0.00,,,0.00,meteohub,2013-01-26 14:47:00,
2013-01-26 08:52:00,21.0,18.3,30.27,SE,128,14.0,19.0,89,0.00,,,0.00,meteohub,2013-01-26 14:52:00,
2013-01-26 08:57:00,21.6,18.5,30.27,East,101,16.0,21.0,88,0.00,,,0.00,meteohub,2013-01-26 14:57:00,
2013-01-26 09:02:00,21.9,18.9,30.27,ESE,111,15.0,21.0,88,0.00,,,0.00,meteohub,2013-01-26 15:02:00,
2013-01-26 09:07:00,22.5,19.4,30.27,SE,132,16.0,21.0,88,0.00,,,0.00,meteohub,2013-01-26 15:07:00,
2013-01-26 09:12:00,22.8,19.8,30.27,SE,124,16.0,22.0,88,0.00,,,0.00,meteohub,2013-01-26 15:12:00,
2013-01-26 09:17:00,23.4,20.7,30.27,ESE,118,14.0,22.0,89,0.00,,,0.00,meteohub,2013-01-26 15:17:00,
2013-01-26 09:22:00,23.9,20.8,30.27,SE,127,17.0,22.0,88,0.00,,,0.00,meteohub,2013-01-26 15:22:00,
2013-01-26 09:27:00,24.1,21.0,30.27,SE,134,17.0,21.0,88,0.00,,,0.00,meteohub,2013-01-26 15:27:00,
2013-01-26 09:32:00,24.6,21.6,30.27,SSE,153,11.0,21.0,88,0.00,,,0.00,meteohub,2013-01-26 15:32:00,
2013-01-26 09:37:00,25.3,22.1,30.27,SE,137,18.0,21.0,87,0.00,,,0.00,meteohub,2013-01-26 15:37:00,
2013-01-26 09:42:00,26.1,22.6,30.27,SE,126,21.0,22.0,87,0.00,,,0.00,meteohub,2013-01-26 15:42:00,
2013-01-26 09:47:00,26.4,22.8,30.26,SE,134,21.0,23.0,86,0.00,,,0.00,meteohub,2013-01-26 15:47:00,
2013-01-26 09:52:00,26.8,22.8,30.26,SSE,153,15.0,23.0,85,0.00,,,0.00,meteohub,2013-01-26 15:52:00,
2013-01-26 09:57:00,27.1,23.0,30.26,SE,129,18.0,24.0,84,0.00,,,0.00,meteohub,2013-01-26 15:57:00,
2013-01-26 10:02:00,27.1,22.6,30.26,SE,126,18.0,24.0,83,0.00,,,0.00,meteohub,2013-01-26 16:02:00,
2013-01-26 10:07:00,27.1,22.6,30.26,SE,136,21.0,24.0,83,0.00,,,0.00,meteohub,2013-01-26 16:07:00,
2013-01-26 10:12:00,27.0,22.5,30.27,South,180,10.0,24.0,83,0.00,,,0.00,meteohub,2013-01-26 16:12:00,
2013-01-26 10:17:00,26.4,21.9,30.26,ESE,115,18.0,24.0,83,0.00,,,0.00,meteohub,2013-01-26 16:17:00,
2013-01-26 10:22:00,26.4,22.3,30.26,SSE,153,16.0,23.0,84,0.00,,,0.00,meteohub,2013-01-26 16:22:00,
2013-01-26 10:28:00,27.1,23.2,30.26,SE,127,19.0,21.0,85,0.00,,,0.00,meteohub,2013-01-26 16:28:00,
2013-01-26 10:33:00,28.6,24.4,30.27,SE,135,21.0,23.0,84,0.00,,,0.00,meteohub,2013-01-26 16:33:00,
2013-01-26 10:38:00,29.8,25.3,30.26,SE,140,19.0,23.0,83,0.00,,,0.00,meteohub,2013-01-26 16:38:00,
2013-01-26 10:43:00,31.1,26.2,30.26,SE,144,15.0,25.0,82,0.00,,,0.00,meteohub,2013-01-26 16:43:00,
2013-01-26 10:48:00,32.4,27.0,30.26,SE,146,19.0,25.0,80,0.00,,,0.00,meteohub,2013-01-26 16:48:00,
2013-01-26 10:53:00,32.7,26.2,30.26,SE,146,20.0,27.0,77,0.00,,,0.00,meteohub,2013-01-26 16:53:00,
2013-01-26 10:58:00,32.5,25.5,30.26,SE,136,25.0,27.0,75,0.00,,,0.00,meteohub,2013-01-26 16:58:00,
2013-01-26 11:03:00,32.5,25.9,30.26,SSE,152,20.0,27.0,76,0.00,,,0.00,meteohub,2013-01-26 17:03:00,
2013-01-26 11:08:00,32.2,25.2,30.26,SE,140,22.0,27.0,75,0.00,,,0.00,meteohub,2013-01-26 17:08:00,
2013-01-26 11:13:00,32.2,25.5,30.26,SE,137,22.0,29.0,76,0.00,,,0.00,meteohub,2013-01-26 17:13:00,
2013-01-26 11:18:00,32.0,25.0,30.26,SE,125,20.0,29.0,75,0.00,,,0.00,meteohub,2013-01-26 17:18:00,
2013-01-26 11:23:00,32.4,25.7,30.25,SSE,153,12.0,29.0,76,0.00,,,0.00,meteohub,2013-01-26 17:23:00,
2013-01-26 11:29:00,32.5,25.5,30.25,SE,138,15.0,27.0,75,0.00,,,0.00,meteohub,2013-01-26 17:29:00,
2013-01-26 11:34:00,32.5,25.5,30.25,SE,134,18.0,27.0,75,0.00,,,0.00,meteohub,2013-01-26 17:34:00,
2013-01-26 11:39:00,33.1,25.7,30.25,SE,133,15.0,22.0,74,0.00,,,0.00,meteohub,2013-01-26 17:39:00,
2013-01-26 11:44:00,33.1,25.7,30.25,SE,126,16.0,22.0,74,0.00,,,0.00,meteohub,2013-01-26 17:44:00,
2013-01-26 11:49:00,33.1,25.7,30.25,SE,134,15.0,21.0,74,0.00,,,0.00,meteohub,2013-01-26 17:49:00,
2013-01-26 11:54:00,33.3,25.5,30.24,SE,144,13.0,21.0,73,0.00,,,0.00,meteohub,2013-01-26 17:54:00,
2013-01-26 11:59:00,33.4,26.1,30.24,SE,144,15.0,21.0,74,0.00,,,0.00,meteohub,2013-01-26 17:59:00,
2013-01-26 12:04:00,34.0,25.9,30.23,SE,128,18.0,21.0,72,0.00,,,0.00,meteohub,2013-01-26 18:04:00,
2013-01-26 12:09:00,34.2,26.4,30.23,SE,130,20.0,22.0,73,0.00,,,0.00,meteohub,2013-01-26 18:09:00,
2013-01-26 12:14:00,34.7,26.6,30.23,SE,142,15.0,24.0,72,0.00,,,0.00,meteohub,2013-01-26 18:14:00,
2013-01-26 12:19:00,35.8,27.3,30.23,SE,134,13.0,24.0,71,0.00,,,0.00,meteohub,2013-01-26 18:19:00,
2013-01-26 12:24:00,36.9,28.0,30.22,SE,142,15.0,22.0,70,0.00,,,0.00,meteohub,2013-01-26 18:24:00,
2013-01-26 12:29:00,37.9,28.0,30.22,SE,138,15.0,21.0,67,0.00,,,0.00,meteohub,2013-01-26 18:29:00,
2013-01-26 12:35:00,38.7,27.9,30.21,SE,131,19.0,21.0,65,0.00,,,0.00,meteohub,2013-01-26 18:35:00,
2013-01-26 12:40:00,38.8,27.7,30.21,SE,145,17.0,22.0,64,0.00,,,0.00,meteohub,2013-01-26 18:40:00,
2013-01-26 12:45:00,39.4,28.2,30.20,SE,135,19.0,25.0,64,0.00,,,0.00,meteohub,2013-01-26 18:45:00,
2013-01-26 12:50:00,39.7,28.2,30.20,SE,141,18.0,25.0,63,0.00,,,0.00,meteohub,2013-01-26 18:50:00,
2013-01-26 12:55:00,40.6,28.2,30.19,SE,132,19.0,25.0,61,0.00,,,0.00,meteohub,2013-01-26 18:55:00,
2013-01-26 13:00:00,41.7,28.0,30.19,SE,140,18.0,25.0,58,0.00,,,0.00,meteohub,2013-01-26 19:00:00,
2013-01-26 13:05:00,42.1,27.9,30.19,South,171,25.0,25.0,57,0.00,,,0.00,meteohub,2013-01-26 19:05:00,
2013-01-26 13:10:00,42.4,28.2,30.18,SE,133,19.0,29.0,57,0.00,,,0.00,meteohub,2013-01-26 19:10:00,
2013-01-26 13:15:00,43.0,27.9,30.18,SE,124,22.0,29.0,55,0.00,,,0.00,meteohub,2013-01-26 19:15:00,
2013-01-26 13:20:00,43.3,28.2,30.17,SE,130,15.0,30.0,55,0.00,,,0.00,meteohub,2013-01-26 19:20:00,
2013-01-26 13:25:00,43.3,28.2,30.17,SE,134,18.0,30.0,55,0.00,,,0.00,meteohub,2013-01-26 19:25:00,
2013-01-26 13:30:00,43.7,28.2,30.17,SE,139,19.0,30.0,54,0.00,,,0.00,meteohub,2013-01-26 19:30:00,
2013-01-26 13:36:00,43.5,28.4,30.17,ESE,119,19.0,29.0,55,0.00,,,0.00,meteohub,2013-01-26 19:36:00,
2013-01-26 13:41:00,44.1,28.9,30.16,ESE,119,21.0,28.0,55,0.00,,,0.00,meteohub,2013-01-26 19:41:00,
2013-01-26 13:46:00,45.1,28.9,30.16,SE,128,18.0,28.0,53,0.00,,,0.00,meteohub,2013-01-26 19:46:00,
2013-01-26 13:51:00,45.9,28.8,30.16,SE,132,22.0,28.0,51,0.00,,,0.00,meteohub,2013-01-26 19:51:00,
2013-01-26 13:56:00,46.9,29.3,30.15,SE,146,12.0,27.0,50,0.00,,,0.00,meteohub,2013-01-26 19:56:00,
2013-01-26 14:01:00,47.8,28.0,30.15,ESE,117,13.0,27.0,46,0.00,,,0.00,meteohub,2013-01-26 20:01:00,
2013-01-26 14:06:00,47.3,28.0,30.14,SE,132,14.0,27.0,47,0.00,,,0.00,meteohub,2013-01-26 20:06:00,
2013-01-26 14:11:00,47.7,28.4,30.14,South,175,17.0,28.0,47,0.00,,,0.00,meteohub,2013-01-26 20:11:00,
2013-01-26 14:16:00,47.8,29.1,30.14,SE,136,21.0,31.0,48,0.00,,,0.00,meteohub,2013-01-26 20:16:00,
2013-01-26 14:21:00,48.4,29.1,30.14,SE,132,18.0,31.0,47,0.00,,,0.00,meteohub,2013-01-26 20:21:00,
2013-01-26 14:27:00,48.6,29.3,30.14,ESE,115,21.0,31.0,47,0.00,,,0.00,meteohub,2013-01-26 20:27:00,
2013-01-26 14:32:00,48.7,28.9,30.14,SE,136,23.0,30.0,46,0.00,,,0.00,meteohub,2013-01-26 20:32:00,
2013-01-26 14:37:00,49.3,29.3,30.14,SE,143,24.0,28.0,46,0.00,,,0.00,meteohub,2013-01-26 20:37:00,
2013-01-26 14:42:00,50.5,28.2,30.14,SW,217,17.0,29.0,42,0.00,,,0.00,meteohub,2013-01-26 20:42:00,
2013-01-26 14:47:00,51.1,27.7,30.14,SE,145,24.0,29.0,40,0.00,,,0.00,meteohub,2013-01-26 20:47:00,
2013-01-26 14:52:00,51.3,27.7,30.14,SE,138,14.0,29.0,40,0.00,,,0.00,meteohub,2013-01-26 20:52:00,
2013-01-26 14:57:00,51.1,28.2,30.14,SSE,157,16.0,30.0,41,0.00,,,0.00,meteohub,2013-01-26 20:57:00,
2013-01-26 15:02:00,50.9,28.0,30.13,SE,134,23.0,30.0,41,0.00,,,0.00,meteohub,2013-01-26 21:02:00,
2013-01-26 15:07:00,50.7,27.9,30.13,SE,130,21.0,30.0,41,0.00,,,0.00,meteohub,2013-01-26 21:07:00,
2013-01-26 15:12:00,51.1,28.2,30.13,SSE,162,13.0,27.0,41,0.00,,,0.00,meteohub,2013-01-26 21:12:00,
2013-01-26 15:17:00,52.0,27.9,30.12,SE,126,13.0,25.0,39,0.00,,,0.00,meteohub,2013-01-26 21:17:00,
2013-01-26 15:22:00,53.2,27.0,30.12,South,171,15.0,26.0,36,0.00,,,0.00,meteohub,2013-01-26 21:22:00,
2013-01-26 15:27:00,54.0,27.0,30.12,SSE,156,7.0,26.0,35,0.00,,,0.00,meteohub,2013-01-26 21:27:00,
2013-01-26 15:32:00,54.1,26.4,30.12,SSW,203,22.0,25.0,34,0.00,,,0.00,meteohub,2013-01-26 21:32:00,
2013-01-26 15:37:00,54.1,26.4,30.12,SSE,163,21.0,28.0,34,0.00,,,0.00,meteohub,2013-01-26 21:37:00,
2013-01-26 15:42:00,54.0,26.2,30.12,SE,136,20.0,28.0,34,0.00,,,0.00,meteohub,2013-01-26 21:42:00,
2013-01-26 15:47:00,54.0,26.2,30.12,South,183,12.0,28.0,34,0.00,,,0.00,meteohub,2013-01-26 21:47:00,
2013-01-26 15:52:00,53.8,26.1,30.12,SE,138,13.0,27.0,34,0.00,,,0.00,meteohub,2013-01-26 21:52:00,
2013-01-26 15:57:00,53.8,26.1,30.12,SE,137,17.0,27.0,34,0.00,,,0.00,meteohub,2013-01-26 21:57:00,
2013-01-26 16:02:00,53.6,25.9,30.12,SSE,163,12.0,27.0,34,0.00,,,0.00,meteohub,2013-01-26 22:02:00,
2013-01-26 16:07:00,53.4,26.4,30.11,South,180,12.0,26.0,35,0.00,,,0.00,meteohub,2013-01-26 22:07:00,
2013-01-26 16:12:00,53.4,25.7,30.11,SE,131,17.0,26.0,34,0.00,,,0.00,meteohub,2013-01-26 22:12:00,
2013-01-26 16:17:00,53.6,26.6,30.11,SE,140,13.0,23.0,35,0.00,,,0.00,meteohub,2013-01-26 22:17:00,
2013-01-26 16:22:00,53.2,25.5,30.11,SSE,168,17.0,23.0,34,0.00,,,0.00,meteohub,2013-01-26 22:22:00,
2013-01-26 16:27:00,52.9,25.9,30.11,SE,140,14.0,24.0,35,0.00,,,0.00,meteohub,2013-01-26 22:27:00,
2013-01-26 16:32:00,52.3,26.2,30.10,SSE,148,11.0,24.0,36,0.00,,,0.00,meteohub,2013-01-26 22:32:00,
2013-01-26 16:37:00,52.0,25.9,30.10,South,178,16.0,24.0,36,0.00,,,0.00,meteohub,2013-01-26 22:37:00,
2013-01-26 16:42:00,51.6,26.2,30.10,SE,146,12.0,21.0,37,0.00,,,0.00,meteohub,2013-01-26 22:42:00,
2013-01-26 16:47:00,51.1,26.4,30.10,SE,134,21.0,21.0,38,0.00,,,0.00,meteohub,2013-01-26 22:47:00,
2013-01-26 16:52:00,50.5,26.4,30.10,SE,132,15.0,24.0,39,0.00,,,0.00,meteohub,2013-01-26 22:52:00,
2013-01-26 16:57:00,50.0,26.6,30.10,SE,142,13.0,24.0,40,0.00,,,0.00,meteohub,2013-01-26 22:57:00,
2013-01-26 17:02:00,49.6,26.2,30.10,ESE,120,12.0,24.0,40,0.00,,,0.00,meteohub,2013-01-26 23:02:00,
2013-01-26 17:07:00,48.9,26.2,30.09,SE,130,11.0,21.0,41,0.00,,,0.00,meteohub,2013-01-26 23:07:00,
2013-01-26 17:12:00,48.4,26.4,30.09,SE,131,12.0,20.0,42,0.00,,,0.00,meteohub,2013-01-26 23:12:00,
2013-01-26 17:17:00,48.0,26.1,30.09,ESE,113,12.0,16.0,42,0.00,,,0.00,meteohub,2013-01-26 23:17:00,
2013-01-26 17:22:00,47.7,26.2,30.09,SE,132,13.0,17.0,43,0.00,,,0.00,meteohub,2013-01-26 23:22:00,
2013-01-26 17:27:00,46.8,26.6,30.09,SE,137,13.0,17.0,45,0.00,,,0.00,meteohub,2013-01-26 23:27:00,
2013-01-26 17:32:00,45.9,26.8,30.10,SE,125,11.0,16.0,47,0.00,,,0.00,meteohub,2013-01-26 23:32:00,
2013-01-26 17:37:00,44.6,26.6,30.09,SE,131,11.0,16.0,49,0.00,,,0.00,meteohub,2013-01-26 23:37:00,
2013-01-26 17:42:00,43.5,26.6,30.09,ESE,121,13.0,15.0,51,0.00,,,0.00,meteohub,2013-01-26 23:42:00,
2013-01-26 17:47:00,43.0,27.0,30.09,ESE,119,9.0,15.0,53,0.00,,,0.00,meteohub,2013-01-26 23:47:00,
2013-01-26 17:52:00,42.3,26.8,30.09,ESE,119,13.0,15.0,54,0.00,,,0.00,meteohub,2013-01-26 23:52:00,
2013-01-26 17:57:00,41.7,26.8,30.09,SE,134,12.0,15.0,55,0.00,,,0.00,meteohub,2013-01-26 23:57:00,
2013-01-26 18:02:00,41.2,26.2,30.09,ESE,110,14.0,15.0,55,0.00,,,0.00,meteohub,2013-01-27 00:02:00,
2013-01-26 18:07:00,40.5,26.4,30.09,SE,135,11.0,15.0,57,0.00,,,0.00,meteohub,2013-01-27 00:07:00,
2013-01-26 18:12:00,39.9,26.4,30.09,ESE,121,12.0,15.0,58,0.00,,,0.00,meteohub,2013-01-27 00:12:00,
2013-01-26 18:17:00,39.7,26.6,30.09,SE,136,13.0,15.0,59,0.00,,,0.00,meteohub,2013-01-27 00:17:00,
2013-01-26 18:22:00,39.7,26.6,30.09,ESE,119,14.0,16.0,59,0.00,,,0.00,meteohub,2013-01-27 00:22:00,
2013-01-26 18:27:00,39.9,26.8,30.09,SE,143,10.0,18.0,59,0.00,,,0.00,meteohub,2013-01-27 00:27:00,
2013-01-26 18:32:00,39.7,26.6,30.09,SE,126,14.0,18.0,59,0.00,,,0.00,meteohub,2013-01-27 00:32:00,
2013-01-26 18:37:00,39.7,26.6,30.09,SE,136,18.0,18.0,59,0.00,,,0.00,meteohub,2013-01-27 00:37:00,
2013-01-26 18:42:00,39.7,26.6,30.10,SSE,150,12.0,18.0,59,0.00,,,0.00,meteohub,2013-01-27 00:42:00,
2013-01-26 18:47:00,39.6,26.4,30.10,ESE,123,14.0,19.0,59,0.00,,,0.00,meteohub,2013-01-27 00:47:00,
2013-01-26 18:52:00,39.4,26.6,30.09,SE,134,13.0,19.0,60,0.00,,,0.00,meteohub,2013-01-27 00:52:00,
2013-01-26 18:57:00,39.0,26.8,30.09,SE,138,15.0,18.0,61,0.00,,,0.00,meteohub,2013-01-27 00:57:00,
2013-01-26 19:02:00,39.0,26.8,30.10,SE,138,12.0,19.0,61,0.00,,,0.00,meteohub,2013-01-27 01:02:00,
2013-01-26 19:07:00,39.4,27.1,30.09,SE,126,16.0,19.0,61,0.00,,,0.00,meteohub,2013-01-27 01:07:00,
2013-01-26 19:12:00,39.6,27.1,30.09,SE,131,17.0,20.0,61,0.00,,,0.00,meteohub,2013-01-27 01:12:00,
2013-01-26 19:17:00,39.7,27.0,30.09,SE,132,19.0,22.0,60,0.00,,,0.00,meteohub,2013-01-27 01:17:00,
2013-01-26 19:22:00,40.1,27.3,30.09,SE,134,19.0,24.0,60,0.00,,,0.00,meteohub,2013-01-27 01:22:00,
2013-01-26 19:27:00,40.3,27.1,30.09,SE,126,19.0,24.0,59,0.00,,,0.00,meteohub,2013-01-27 01:27:00,
2013-01-26 19:32:00,40.5,27.3,30.09,ESE,105,16.0,24.0,59,0.00,,,0.00,meteohub,2013-01-27 01:32:00,
2013-01-26 19:37:00,40.3,27.1,30.09,SSE,147,15.0,24.0,59,0.00,,,0.00,meteohub,2013-01-27 01:37:00,
2013-01-26 19:42:00,40.3,27.1,30.09,SE,132,22.0,25.0,59,0.00,,,0.00,meteohub,2013-01-27 01:42:00,
2013-01-26 19:47:00,40.1,27.0,30.09,SE,133,18.0,25.0,59,0.00,,,0.00,meteohub,2013-01-27 01:47:00,
2013-01-26 19:52:00,39.9,26.8,30.09,SE,134,13.0,25.0,59,0.00,,,0.00,meteohub,2013-01-27 01:52:00,
2013-01-26 19:57:00,39.9,26.8,30.09,SE,146,18.0,25.0,59,0.00,,,0.00,meteohub,2013-01-27 01:57:00,
2013-01-26 20:02:00,39.9,27.1,30.09,SE,134,16.0,25.0,60,0.00,,,0.00,meteohub,2013-01-27 02:02:00,
2013-01-26 20:07:00,39.7,26.6,30.09,SSE,162,10.0,25.0,59,0.00,,,0.00,meteohub,2013-01-27 02:07:00,
2013-01-26 20:12:00,39.7,27.0,30.09,SE,134,19.0,25.0,60,0.00,,,0.00,meteohub,2013-01-27 02:12:00,
2013-01-26 20:17:00,39.7,27.0,30.09,ESE,113,16.0,27.0,60,0.00,,,0.00,meteohub,2013-01-27 02:17:00,
2013-01-26 20:22:00,39.6,26.8,30.09,SE,144,19.0,27.0,60,0.00,,,0.00,meteohub,2013-01-27 02:22:00,
2013-01-26 20:27:00,39.4,26.6,30.09,SE,139,23.0,28.0,60,0.00,,,0.00,meteohub,2013-01-27 02:27:00,
2013-01-26 20:32:00,39.4,27.1,30.09,SSE,154,19.0,29.0,61,0.00,,,0.00,meteohub,2013-01-27 02:32:00,
2013-01-26 20:37:00,39.2,27.0,30.09,SSE,154,12.0,29.0,61,0.00,,,0.00,meteohub,2013-01-27 02:37:00,
2013-01-26 20:42:00,39.0,26.8,30.09,ESE,123,20.0,29.0,61,0.00,,,0.00,meteohub,2013-01-27 02:42:00,
2013-01-26 20:47:00,38.8,26.6,30.08,SE,134,16.0,29.0,61,0.00,,,0.00,meteohub,2013-01-27 02:47:00,
2013-01-26 20:52:00,38.5,26.6,30.08,SE,138,20.0,27.0,62,0.00,,,0.00,meteohub,2013-01-27 02:52:00,
2013-01-26 20:57:00,38.3,26.8,30.08,SE,133,15.0,27.0,63,0.00,,,0.00,meteohub,2013-01-27 02:57:00,
2013-01-26 21:02:00,38.1,26.6,30.08,SE,136,15.0,25.0,63,0.00,,,0.00,meteohub,2013-01-27 03:02:00,
2013-01-26 21:07:00,38.1,26.6,30.08,SE,144,15.0,25.0,63,0.00,,,0.00,meteohub,2013-01-27 03:07:00,
2013-01-26 21:12:00,37.9,26.8,30.07,ESE,107,21.0,25.0,64,0.00,,,0.00,meteohub,2013-01-27 03:12:00,
2013-01-26 21:17:00,37.8,26.6,30.08,SE,126,16.0,23.0,64,0.00,,,0.00,meteohub,2013-01-27 03:17:00,
2013-01-26 21:22:00,37.6,26.6,30.07,SE,135,12.0,23.0,64,0.00,,,0.00,meteohub,2013-01-27 03:22:00,
2013-01-26 21:27:00,37.4,26.4,30.07,SSE,147,15.0,26.0,64,0.00,,,0.00,meteohub,2013-01-27 03:27:00,
2013-01-26 21:32:00,37.4,26.4,30.07,SE,135,19.0,26.0,64,0.00,,,0.00,meteohub,2013-01-27 03:32:00,
2013-01-26 21:37:00,37.4,26.4,30.07,SE,139,22.0,26.0,64,0.00,,,0.00,meteohub,2013-01-27 03:37:00,
2013-01-26 21:42:00,37.2,26.2,30.07,SE,137,21.0,27.0,64,0.00,,,0.00,meteohub,2013-01-27 03:42:00,
2013-01-26 21:47:00,37.2,26.6,30.07,ESE,103,21.0,27.0,65,0.00,,,0.00,meteohub,2013-01-27 03:47:00,
2013-01-26 21:52:00,37.0,26.4,30.07,ESE,116,21.0,27.0,65,0.00,,,0.00,meteohub,2013-01-27 03:52:00,
2013-01-26 21:57:00,37.0,26.4,30.07,ESE,119,19.0,27.0,65,0.00,,,0.00,meteohub,2013-01-27 03:57:00,
2013-01-26 22:02:00,37.0,26.4,30.07,SE,139,14.0,27.0,65,0.00,,,0.00,meteohub,2013-01-27 04:02:00,
2013-01-26 22:07:00,36.9,26.2,30.07,SE,140,15.0,27.0,65,0.00,,,0.00,meteohub,2013-01-27 04:07:00,
2013-01-26 22:12:00,36.7,26.4,30.07,SE,141,18.0,27.0,66,0.00,,,0.00,meteohub,2013-01-27 04:12:00,
2013-01-26 22:17:00,36.3,26.1,30.07,SE,137,17.0,27.0,66,0.00,,,0.00,meteohub,2013-01-27 04:17:00,
2013-01-26 22:22:00,36.3,26.1,30.07,SE,144,13.0,28.0,66,0.00,,,0.00,meteohub,2013-01-27 04:22:00,
2013-01-26 22:27:00,36.3,26.1,30.07,SE,136,15.0,28.0,66,0.00,,,0.00,meteohub,2013-01-27 04:27:00,
2013-01-26 22:32:00,36.5,26.2,30.07,SE,131,19.0,28.0,66,0.00,,,0.00,meteohub,2013-01-27 04:32:00,
2013-01-26 22:37:00,36.7,26.4,30.07,SE,137,14.0,23.0,66,0.00,,,0.00,meteohub,2013-01-27 04:37:00,
2013-01-26 22:42:00,36.7,26.4,30.07,SE,143,17.0,25.0,66,0.00,,,0.00,meteohub,2013-01-27 04:42:00,
2013-01-26 22:47:00,36.9,26.6,30.07,SE,141,11.0,25.0,66,0.00,,,0.00,meteohub,2013-01-27 04:47:00,
2013-01-26 22:52:00,36.9,26.6,30.06,SE,130,18.0,25.0,66,0.00,,,0.00,meteohub,2013-01-27 04:52:00,
2013-01-26 22:57:00,36.9,26.6,30.06,ESE,111,15.0,27.0,66,0.00,,,0.00,meteohub,2013-01-27 04:57:00,
2013-01-26 23:00:00,36.9,26.6,30.07,SE,142,23.0,27.0,66,0.00,,,0.00,meteohub,2013-01-27 05:00:00,
2013-01-26 23:02:00,36.9,26.6,30.06,SE,144,14.0,27.0,66,0.00,,,0.00,meteohub,2013-01-27 05:02:00,
2013-01-26 23:07:00,36.9,26.6,30.06,SSE,161,23.0,27.0,66,0.00,,,0.00,meteohub,2013-01-27 05:07:00,
2013-01-26 23:12:00,36.9,26.6,30.06,SE,141,14.0,26.0,66,0.00,,,0.00,meteohub,2013-01-27 05:12:00,
2013-01-26 23:17:00,36.9,26.6,30.06,SE,134,17.0,25.0,66,0.00,,,0.00,meteohub,2013-01-27 05:17:00,
2013-01-26 23:22:00,36.9,26.6,30.06,ESE,114,19.0,26.0,66,0.00,,,0.00,meteohub,2013-01-27 05:22:00,
2013-01-26 23:27:00,36.9,26.6,30.06,ESE,123,21.0,27.0,66,0.00,,,0.00,meteohub,2013-01-27 05:27:00,
2013-01-26 23:33:00,36.9,26.6,30.06,ESE,114,20.0,27.0,66,0.00,,,0.00,meteohub,2013-01-27 05:33:00,
2013-01-26 23:38:00,37.0,26.8,30.05,SE,134,16.0,27.0,66,0.00,,,0.00,meteohub,2013-01-27 05:38:00,
2013-01-26 23:43:00,37.0,26.8,30.05,SSE,154,26.0,26.0,66,0.00,,,0.00,meteohub,2013-01-27 05:43:00,
2013-01-26 23:48:00,37.0,26.8,30.05,ESE,123,19.0,24.0,66,0.00,,,0.00,meteohub,2013-01-27 05:48:00,
2013-01-26 23:53:00,36.9,27.0,30.04,SE,138,21.0,27.0,67,0.00,,,0.00,meteohub,2013-01-27 05:53:00,
2013-01-26 23:58:00,37.0,27.1,30.04,SE,126,14.0,27.0,67,0.00,,,0.00,meteohub,2013-01-27 05:58:00,